"Sample Date","Sample Time","Sample Value","Units","Flow Rate","Laser Status","Micron Size 0","Counts/Channel 0","Micron Size 1","Counts/Channel 1","Micron Size 2","Counts/Channel 2","Micron Size 3","Counts/Channel 3","Micron Size 4","Counts/Channel 4","Micron Size 5","Counts/Channel 5","Micron Size 6","Counts/Channel 6","Micron Size 7","Counts/Channel 7","Micron Size 8","Counts/Channel 8","Micron Size 9","Counts/Channel 9","Micron Size 10","Counts/Channel 10","Micron Size 11","Counts/Channel 11","Micron Size 12","Counts/Channel 12","Micron Size 13","Counts/Channel 13","Micron Size 14","Counts/Channel 14","Micron Size 15","Counts/Channel 15","Micron Size 16","Counts/Channel 16","Micron Size 17","Counts/Channel 17","Micron Size 18","Counts/Channel 18","Micron Size 19","Counts/Channel 19","Micron Size 20","Counts/Channel 20","Micron Size 21","Counts/Channel 21","Micron Size 22","Counts/Channel 22","Micron Size 23","Counts/Channel 23","Micron Size 24","Counts/Channel 24","Micron Size 25","Counts/Channel 25","Micron Size 26","Counts/Channel 26","Micron Size 27","Counts/Channel 27","Micron Size 28","Counts/Channel 28","Micron Size 29","Counts/Channel 29","Micron Size 30","Counts/Channel 30","Micron Size 31","Counts/Channel 31"
"05/02/07","22:00:03",43131.000,"cc",28320.914,1,0.100,34321.000,0.200,7798.000,0.300,940.000,0.500,63.000,1.000,9.000,5.000,0
"05/02/07","22:00:09",42827.000,"cc",28368.334,1,0.100,33817.000,0.200,8012.000,0.300,939.000,0.500,51.000,1.000,8.000,5.000,0
"05/02/07","22:00:15",42682.000,"cc",28292.598,1,0.100,33880.000,0.200,7755.000,0.300,952.000,0.500,78.000,1.000,17.000,5.000,0
"05/02/07","22:00:21",43210.000,"cc",28319.535,1,0.100,34340.000,0.200,7894.000,0.300,907.000,0.500,54.000,1.000,15.000,5.000,0
"05/02/07","22:00:27",42928.000,"cc",28309.922,1,0.100,33938.000,0.200,7956.000,0.300,965.000,0.500,62.000,1.000,7.000,5.000,0
"05/02/07","22:00:33",42685.000,"cc",28335.619,1,0.100,33870.000,0.200,7788.000,0.300,951.000,0.500,64.000,1.000,12.000,5.000,0
"05/02/07","22:00:39",42623.000,"cc",28322.188,1,0.100,33898.000,0.200,7703.000,0.300,947.000,0.500,66.000,1.000,9.000,5.000,0
"05/02/07","22:00:45",42954.000,"cc",28278.512,1,0.100,34004.000,0.200,7890.000,0.300,998.000,0.500,47.000,1.000,15.000,5.000,0
"05/02/07","22:00:51",42582.000,"cc",28298.438,1,0.100,33584.000,0.200,7911.000,0.300,1005.000,0.500,67.000,1.000,15.000,5.000,0
"05/02/07","22:00:57",42359.000,"cc",28337.035,1,0.100,33591.000,0.200,7752.000,0.300,947.000,0.500,63.000,1.000,6.000,5.000,0
"05/02/07","22:01:03",42676.000,"cc",28312.871,1,0.100,33882.000,0.200,7824.000,0.300,896.000,0.500,57.000,1.000,17.000,5.000,0
"05/02/07","22:01:09",42420.000,"cc",28294.047,1,0.100,33538.000,0.200,7894.000,0.300,924.000,0.500,53.000,1.000,11.000,5.000,0
"05/02/07","22:01:15",42679.000,"cc",28269.195,1,0.100,33775.000,0.200,7933.000,0.300,894.000,0.500,61.000,1.000,16.000,5.000,0
"05/02/07","22:01:21",42405.000,"cc",28336.859,1,0.100,33599.000,0.200,7763.000,0.300,979.000,0.500,55.000,1.000,9.000,5.000,0
"05/02/07","22:01:27",42841.000,"cc",28363.877,1,0.100,34130.000,0.200,7742.000,0.300,901.000,0.500,51.000,1.000,17.000,5.000,0
"05/02/07","22:01:33",42413.000,"cc",28366.492,1,0.100,33600.000,0.200,7765.000,0.300,956.000,0.500,74.000,1.000,18.000,5.000,0
"05/02/07","22:01:39",42488.000,"cc",28336.982,1,0.100,33738.000,0.200,7750.000,0.300,913.000,0.500,72.000,1.000,15.000,5.000,0
"05/02/07","22:01:45",42334.000,"cc",28293.994,1,0.100,33654.000,0.200,7737.000,0.300,890.000,0.500,45.000,1.000,8.000,5.000,0
"05/02/07","22:01:51",42513.000,"cc",28336.217,1,0.100,33694.000,0.200,7807.000,0.300,935.000,0.500,64.000,1.000,13.000,5.000,0
"05/02/07","22:01:57",41918.000,"cc",28286.727,1,0.100,33148.000,0.200,7747.000,0.300,964.000,0.500,48.000,1.000,11.000,5.000,0
"05/02/07","22:02:03",42464.000,"cc",28259.326,1,0.100,33633.000,0.200,7778.000,0.300,997.000,0.500,49.000,1.000,7.000,5.000,0
"05/02/07","22:02:09",43073.000,"cc",28351.289,1,0.100,34035.000,0.200,8006.000,0.300,968.000,0.500,53.000,1.000,11.000,5.000,0
"05/02/07","22:02:15",43104.000,"cc",28346.986,1,0.100,34091.000,0.200,7995.000,0.300,947.000,0.500,59.000,1.000,12.000,5.000,0
"05/02/07","22:02:21",43102.000,"cc",28277.410,1,0.100,34188.000,0.200,7875.000,0.300,962.000,0.500,62.000,1.000,15.000,5.000,0
"05/02/07","22:02:27",43132.000,"cc",28289.434,1,0.100,34249.000,0.200,7857.000,0.300,967.000,0.500,51.000,1.000,8.000,5.000,0
"05/02/07","22:02:33",43381.000,"cc",28315.731,1,0.100,34232.000,0.200,8118.000,0.300,965.000,0.500,54.000,1.000,12.000,5.000,0
"05/02/07","22:02:39",43182.000,"cc",28293.969,1,0.100,34205.000,0.200,7974.000,0.300,929.000,0.500,63.000,1.000,11.000,5.000,0
"05/02/07","22:02:45",43145.000,"cc",28337.768,1,0.100,34320.000,0.200,7791.000,0.300,968.000,0.500,60.000,1.000,6.000,5.000,0
"05/02/07","22:02:51",43402.000,"cc",28285.553,1,0.100,34429.000,0.200,7928.000,0.300,963.000,0.500,71.000,1.000,11.000,5.000,0
"05/02/07","22:02:57",43296.000,"cc",28393.916,1,0.100,34371.000,0.200,7923.000,0.300,940.000,0.500,51.000,1.000,11.000,5.000,0
"05/02/07","22:03:03",43288.000,"cc",28324.828,1,0.100,34242.000,0.200,7974.000,0.300,997.000,0.500,66.000,1.000,9.000,5.000,0
"05/02/07","22:03:09",43291.000,"cc",28247.793,1,0.100,34118.000,0.200,8085.000,0.300,1017.000,0.500,61.000,1.000,10.000,5.000,0
"05/02/07","22:03:15",43259.000,"cc",28333.066,1,0.100,34297.000,0.200,7937.000,0.300,943.000,0.500,60.000,1.000,22.000,5.000,0
"05/02/07","22:03:21",43327.000,"cc",28329.000,1,0.100,34475.000,0.200,7800.000,0.300,975.000,0.500,65.000,1.000,12.000,5.000,0
"05/02/07","22:03:27",43555.000,"cc",28381.705,1,0.100,34488.000,0.200,7984.000,0.300,1005.000,0.500,55.000,1.000,23.000,5.000,0
"05/02/07","22:03:33",43489.000,"cc",28346.025,1,0.100,34558.000,0.200,7898.000,0.300,971.000,0.500,53.000,1.000,9.000,5.000,0
"05/02/07","22:03:39",43353.000,"cc",28356.504,1,0.100,34223.000,0.200,8072.000,0.300,983.000,0.500,62.000,1.000,13.000,5.000,0
"05/02/07","22:03:45",43447.000,"cc",28334.781,1,0.100,34369.000,0.200,8050.000,0.300,945.000,0.500,74.000,1.000,9.000,5.000,0
"05/02/07","22:03:51",43576.000,"cc",28283.129,1,0.100,34496.000,0.200,7961.000,0.300,1027.000,0.500,76.000,1.000,16.000,5.000,0
"05/02/07","22:03:57",43605.000,"cc",28264.066,1,0.100,34488.000,0.200,8094.000,0.300,953.000,0.500,60.000,1.000,10.000,5.000,0
"05/02/07","22:04:03",43833.000,"cc",28285.600,1,0.100,34677.000,0.200,8095.000,0.300,983.000,0.500,65.000,1.000,13.000,5.000,0
"05/02/07","22:04:09",43737.000,"cc",28345.381,1,0.100,34654.000,0.200,8039.000,0.300,978.000,0.500,55.000,1.000,11.000,5.000,0
"05/02/07","22:04:15",43777.000,"cc",28301.387,1,0.100,34633.000,0.200,8059.000,0.300,1018.000,0.500,60.000,1.000,7.000,5.000,0
"05/02/07","22:04:21",43733.000,"cc",28361.756,1,0.100,34525.000,0.200,8150.000,0.300,991.000,0.500,59.000,1.000,8.000,5.000,0
"05/02/07","22:04:27",43752.000,"cc",28279.795,1,0.100,34635.000,0.200,8086.000,0.300,962.000,0.500,62.000,1.000,7.000,5.000,0
"05/02/07","22:04:33",43542.000,"cc",28339.863,1,0.100,34414.000,0.200,8101.000,0.300,973.000,0.500,45.000,1.000,9.000,5.000,0
"05/02/07","22:04:39",43754.000,"cc",28337.578,1,0.100,34687.000,0.200,8035.000,0.300,961.000,0.500,57.000,1.000,14.000,5.000,0
"05/02/07","22:04:45",43915.000,"cc",28359.844,1,0.100,34640.000,0.200,8290.000,0.300,937.000,0.500,39.000,1.000,9.000,5.000,0
"05/02/07","22:04:51",43684.000,"cc",28256.773,1,0.100,34658.000,0.200,7962.000,0.300,1006.000,0.500,48.000,1.000,10.000,5.000,0
"05/02/07","22:04:57",43159.000,"cc",28277.500,1,0.100,34024.000,0.200,8072.000,0.300,994.000,0.500,62.000,1.000,7.000,5.000,0
"05/02/07","22:05:03",43014.000,"cc",28295.404,1,0.100,34042.000,0.200,7976.000,0.300,955.000,0.500,35.000,1.000,6.000,5.000,0
"05/02/07","22:05:09",43522.000,"cc",28326.465,1,0.100,34541.000,0.200,8015.000,0.300,911.000,0.500,48.000,1.000,7.000,5.000,0
"05/02/07","22:05:15",43266.000,"cc",28338.299,1,0.100,34292.000,0.200,7928.000,0.300,987.000,0.500,49.000,1.000,10.000,5.000,0
"05/02/07","22:05:21",43463.000,"cc",28305.330,1,0.100,34476.000,0.200,7938.000,0.300,987.000,0.500,53.000,1.000,9.000,5.000,0
"05/02/07","22:05:27",43339.000,"cc",28322.793,1,0.100,34284.000,0.200,8025.000,0.300,960.000,0.500,61.000,1.000,9.000,5.000,0
"05/02/07","22:05:33",43439.000,"cc",28335.938,1,0.100,34318.000,0.200,8078.000,0.300,970.000,0.500,67.000,1.000,6.000,5.000,0
"05/02/07","22:05:39",43336.000,"cc",28334.881,1,0.100,34363.000,0.200,7998.000,0.300,915.000,0.500,51.000,1.000,9.000,5.000,0
"05/02/07","22:05:45",43094.000,"cc",28305.645,1,0.100,34135.000,0.200,7882.000,0.300,1014.000,0.500,54.000,1.000,9.000,5.000,0
"05/02/07","22:05:51",43269.000,"cc",28349.184,1,0.100,34123.000,0.200,8132.000,0.300,961.000,0.500,47.000,1.000,6.000,5.000,0
"05/02/07","22:05:57",42846.000,"cc",28309.166,1,0.100,34087.000,0.200,7761.000,0.300,943.000,0.500,45.000,1.000,10.000,5.000,0
"05/02/07","22:06:03",42686.000,"cc",28350.225,1,0.100,33777.000,0.200,7884.000,0.300,958.000,0.500,61.000,1.000,6.000,5.000,0
"05/02/07","22:06:09",42916.000,"cc",28281.861,1,0.100,33889.000,0.200,8001.000,0.300,969.000,0.500,51.000,1.000,6.000,5.000,0
"05/02/07","22:06:15",42825.000,"cc",28246.410,1,0.100,33735.000,0.200,8099.000,0.300,924.000,0.500,58.000,1.000,9.000,5.000,0
"05/02/07","22:06:21",43079.000,"cc",28302.250,1,0.100,34056.000,0.200,7971.000,0.300,997.000,0.500,46.000,1.000,9.000,5.000,0
"05/02/07","22:06:27",42534.000,"cc",28334.711,1,0.100,33710.000,0.200,7836.000,0.300,936.000,0.500,47.000,1.000,5.000,5.000,0
"05/02/07","22:06:33",42794.000,"cc",28323.887,1,0.100,33918.000,0.200,7862.000,0.300,958.000,0.500,51.000,1.000,5.000,5.000,0
"05/02/07","22:06:39",42491.000,"cc",28261.240,1,0.100,33623.000,0.200,7862.000,0.300,957.000,0.500,42.000,1.000,7.000,5.000,0
"05/02/07","22:06:45",42704.000,"cc",28321.762,1,0.100,33858.000,0.200,7853.000,0.300,955.000,0.500,34.000,1.000,4.000,5.000,0
"05/02/07","22:06:51",42249.000,"cc",28343.523,1,0.100,33625.000,0.200,7584.000,0.300,962.000,0.500,68.000,1.000,10.000,5.000,0
"05/02/07","22:06:57",42338.000,"cc",28296.846,1,0.100,33691.000,0.200,7688.000,0.300,888.000,0.500,61.000,1.000,10.000,5.000,0
"05/02/07","22:07:03",42457.000,"cc",28334.908,1,0.100,33565.000,0.200,7930.000,0.300,904.000,0.500,49.000,1.000,9.000,5.000,0
"05/02/07","22:07:09",42582.000,"cc",28324.668,1,0.100,33768.000,0.200,7808.000,0.300,943.000,0.500,58.000,1.000,5.000,5.000,0
"05/02/07","22:07:15",42574.000,"cc",28372.002,1,0.100,33705.000,0.200,7899.000,0.300,912.000,0.500,43.000,1.000,15.000,5.000,0
"05/02/07","22:07:21",42373.000,"cc",28405.336,1,0.100,33517.000,0.200,7809.000,0.300,986.000,0.500,55.000,1.000,6.000,5.000,0
"05/02/07","22:07:27",42174.000,"cc",28330.023,1,0.100,33303.000,0.200,7862.000,0.300,946.000,0.500,57.000,1.000,6.000,5.000,0
"05/02/07","22:07:33",42449.000,"cc",28299.471,1,0.100,33528.000,0.200,7892.000,0.300,965.000,0.500,60.000,1.000,4.000,5.000,0
"05/02/07","22:07:39",42740.000,"cc",28216.190,1,0.100,33741.000,0.200,7979.000,0.300,951.000,0.500,65.000,1.000,4.000,5.000,0
"05/02/07","22:07:45",42616.000,"cc",28269.717,1,0.100,33813.000,0.200,7795.000,0.300,944.000,0.500,47.000,1.000,17.000,5.000,0
"05/02/07","22:07:51",43025.000,"cc",28283.182,1,0.100,34008.000,0.200,7962.000,0.300,994.000,0.500,54.000,1.000,7.000,5.000,0
"05/02/07","22:07:57",42671.000,"cc",28353.061,1,0.100,33743.000,0.200,7890.000,0.300,981.000,0.500,52.000,1.000,5.000,5.000,0
"05/02/07","22:08:03",42579.000,"cc",28349.648,1,0.100,33752.000,0.200,7821.000,0.300,951.000,0.500,50.000,1.000,5.000,5.000,0
"05/02/07","22:08:09",42570.000,"cc",28275.213,1,0.100,33716.000,0.200,7827.000,0.300,977.000,0.500,43.000,1.000,7.000,5.000,0
"05/02/07","22:08:15",42521.000,"cc",28364.977,1,0.100,33677.000,0.200,7883.000,0.300,900.000,0.500,54.000,1.000,7.000,5.000,0
"05/02/07","22:08:21",42814.000,"cc",28269.775,1,0.100,33893.000,0.200,7912.000,0.300,948.000,0.500,55.000,1.000,6.000,5.000,0
"05/02/07","22:08:27",43333.000,"cc",28352.623,1,0.100,34369.000,0.200,7980.000,0.300,928.000,0.500,47.000,1.000,9.000,5.000,0
"05/02/07","22:08:33",43162.000,"cc",28316.270,1,0.100,34304.000,0.200,7808.000,0.300,1008.000,0.500,37.000,1.000,5.000,5.000,0
"05/02/07","22:08:39",42913.000,"cc",28311.201,1,0.100,33895.000,0.200,7965.000,0.300,987.000,0.500,58.000,1.000,8.000,5.000,0
"05/02/07","22:08:45",42746.000,"cc",28303.031,1,0.100,33689.000,0.200,7982.000,0.300,1019.000,0.500,46.000,1.000,10.000,5.000,0
"05/02/07","22:08:51",42939.000,"cc",28309.549,1,0.100,33840.000,0.200,8049.000,0.300,992.000,0.500,50.000,1.000,8.000,5.000,0
"05/02/07","22:08:57",43159.000,"cc",28308.033,1,0.100,33967.000,0.200,8147.000,0.300,983.000,0.500,52.000,1.000,10.000,5.000,0
"05/02/07","22:09:03",43283.000,"cc",28325.527,1,0.100,34138.000,0.200,8089.000,0.300,987.000,0.500,60.000,1.000,9.000,5.000,0
"05/02/07","22:09:09",43337.000,"cc",28335.938,1,0.100,34417.000,0.200,7903.000,0.300,947.000,0.500,59.000,1.000,11.000,5.000,0
"05/02/07","22:09:15",42675.000,"cc",28370.244,1,0.100,33719.000,0.200,7983.000,0.300,901.000,0.500,61.000,1.000,11.000,5.000,0
"05/02/07","22:09:21",42875.000,"cc",28311.365,1,0.100,34018.000,0.200,7840.000,0.300,954.000,0.500,51.000,1.000,12.000,5.000,0
"05/02/07","22:09:27",43291.000,"cc",28310.561,1,0.100,34314.000,0.200,7944.000,0.300,971.000,0.500,51.000,1.000,11.000,5.000,0
"05/02/07","22:09:33",42880.000,"cc",28344.811,1,0.100,33944.000,0.200,7952.000,0.300,924.000,0.500,52.000,1.000,8.000,5.000,0
"05/02/07","22:09:39",43243.000,"cc",28287.086,1,0.100,34366.000,0.200,7879.000,0.300,950.000,0.500,39.000,1.000,9.000,5.000,0
"05/02/07","22:09:45",43463.000,"cc",28279.311,1,0.100,34455.000,0.200,8004.000,0.300,929.000,0.500,63.000,1.000,12.000,5.000,0
"05/02/07","22:09:51",42736.000,"cc",28321.891,1,0.100,33915.000,0.200,7818.000,0.300,941.000,0.500,44.000,1.000,18.000,5.000,0
"05/02/07","22:09:57",43619.000,"cc",28288.893,1,0.100,34572.000,0.200,7982.000,0.300,996.000,0.500,59.000,1.000,10.000,5.000,0
"05/02/07","22:10:03",43510.000,"cc",28311.248,1,0.100,34426.000,0.200,8060.000,0.300,973.000,0.500,46.000,1.000,5.000,5.000,0
"05/02/07","22:10:09",43174.000,"cc",28339.430,1,0.100,34190.000,0.200,7919.000,0.300,982.000,0.500,69.000,1.000,14.000,5.000,0
"05/02/07","22:10:15",43212.000,"cc",28337.533,1,0.100,34115.000,0.200,8056.000,0.300,972.000,0.500,61.000,1.000,8.000,5.000,0
"05/02/07","22:10:21",43822.000,"cc",28330.096,1,0.100,34616.000,0.200,8136.000,0.300,988.000,0.500,68.000,1.000,13.000,5.000,1.000
"05/02/07","22:10:27",43748.000,"cc",28276.773,1,0.100,34763.000,0.200,7952.000,0.300,957.000,0.500,66.000,1.000,10.000,5.000,0
"05/02/07","22:10:33",43661.000,"cc",28311.621,1,0.100,34435.000,0.200,8155.000,0.300,1010.000,0.500,49.000,1.000,12.000,5.000,0
"05/02/07","22:10:39",43386.000,"cc",28359.002,1,0.100,34332.000,0.200,8059.000,0.300,935.000,0.500,53.000,1.000,7.000,5.000,0
"05/02/07","22:10:45",43426.000,"cc",28338.561,1,0.100,34312.000,0.200,8112.000,0.300,932.000,0.500,60.000,1.000,10.000,5.000,0
"05/02/07","22:10:51",43446.000,"cc",28353.315,1,0.100,34307.000,0.200,8104.000,0.300,953.000,0.500,69.000,1.000,13.000,5.000,0
"05/02/07","22:10:57",43272.000,"cc",28294.311,1,0.100,34100.000,0.200,8120.000,0.300,987.000,0.500,48.000,1.000,17.000,5.000,0
"05/02/07","22:11:03",43306.000,"cc",28300.272,1,0.100,34368.000,0.200,7935.000,0.300,921.000,0.500,67.000,1.000,15.000,5.000,0
"05/02/07","22:11:09",42908.000,"cc",28275.621,1,0.100,33864.000,0.200,8085.000,0.300,885.000,0.500,63.000,1.000,11.000,5.000,0
"05/02/07","22:11:15",42540.000,"cc",28365.395,1,0.100,33582.000,0.200,7944.000,0.300,937.000,0.500,60.000,1.000,17.000,5.000,0
"05/02/07","22:11:21",42609.000,"cc",28281.356,1,0.100,33646.000,0.200,7950.000,0.300,918.000,0.500,77.000,1.000,18.000,5.000,0
"05/02/07","22:11:27",42447.000,"cc",28328.707,1,0.100,33584.000,0.200,7868.000,0.300,910.000,0.500,67.000,1.000,18.000,5.000,0
"05/02/07","22:11:33",42406.000,"cc",28300.850,1,0.100,33569.000,0.200,7808.000,0.300,949.000,0.500,64.000,1.000,16.000,5.000,0
"05/02/07","22:11:39",42928.000,"cc",28280.229,1,0.100,33823.000,0.200,8032.000,0.300,984.000,0.500,74.000,1.000,15.000,5.000,0
"05/02/07","22:11:45",42982.000,"cc",28329.154,1,0.100,33824.000,0.200,8131.000,0.300,938.000,0.500,69.000,1.000,20.000,5.000,0
"05/02/07","22:11:51",42453.000,"cc",28301.815,1,0.100,33726.000,0.200,7762.000,0.300,880.000,0.500,73.000,1.000,12.000,5.000,0
"05/02/07","22:11:57",42094.000,"cc",28336.631,1,0.100,33300.000,0.200,7786.000,0.300,915.000,0.500,69.000,1.000,24.000,5.000,0
"05/02/07","22:12:03",41869.000,"cc",28374.754,1,0.100,33086.000,0.200,7749.000,0.300,929.000,0.500,97.000,1.000,8.000,5.000,0
"05/02/07","22:12:09",41500.000,"cc",28309.957,1,0.100,32909.000,0.200,7607.000,0.300,898.000,0.500,68.000,1.000,18.000,5.000,0
"05/02/07","22:12:15",41200.000,"cc",28359.941,1,0.100,32466.000,0.200,7686.000,0.300,972.000,0.500,53.000,1.000,23.000,5.000,0
"05/02/07","22:12:21",41504.000,"cc",28340.281,1,0.100,32957.000,0.200,7503.000,0.300,941.000,0.500,86.000,1.000,17.000,5.000,0
"05/02/07","22:12:27",41640.000,"cc",28239.656,1,0.100,33001.000,0.200,7620.000,0.300,939.000,0.500,61.000,1.000,19.000,5.000,0
"05/02/07","22:12:33",41729.000,"cc",28258.701,1,0.100,33046.000,0.200,7638.000,0.300,949.000,0.500,82.000,1.000,14.000,5.000,0
"05/02/07","22:12:39",41665.000,"cc",28335.801,1,0.100,32946.000,0.200,7690.000,0.300,936.000,0.500,69.000,1.000,24.000,5.000,0
"05/02/07","22:12:45",41367.000,"cc",28334.424,1,0.100,32749.000,0.200,7669.000,0.300,869.000,0.500,67.000,1.000,13.000,5.000,0
"05/02/07","22:12:51",41579.000,"cc",28367.158,1,0.100,33005.000,0.200,7554.000,0.300,933.000,0.500,70.000,1.000,17.000,5.000,0
"05/02/07","22:12:57",41430.000,"cc",28289.951,1,0.100,32766.000,0.200,7577.000,0.300,1014.000,0.500,57.000,1.000,16.000,5.000,0
"05/02/07","22:13:03",41116.000,"cc",28326.674,1,0.100,32385.000,0.200,7734.000,0.300,920.000,0.500,65.000,1.000,12.000,5.000,0
"05/02/07","22:13:09",40347.000,"cc",28327.305,1,0.100,31676.000,0.200,7661.000,0.300,916.000,0.500,76.000,1.000,18.000,5.000,0
"05/02/07","22:13:15",40949.000,"cc",28292.498,1,0.100,32439.000,0.200,7521.000,0.300,905.000,0.500,70.000,1.000,14.000,5.000,0
"05/02/07","22:13:21",40183.000,"cc",28305.309,1,0.100,31742.000,0.200,7446.000,0.300,904.000,0.500,68.000,1.000,23.000,5.000,0
"05/02/07","22:13:27",40232.000,"cc",28330.565,1,0.100,31777.000,0.200,7418.000,0.300,931.000,0.500,80.000,1.000,26.000,5.000,0
"05/02/07","22:13:33",40203.000,"cc",28271.352,1,0.100,31856.000,0.200,7307.000,0.300,944.000,0.500,74.000,1.000,22.000,5.000,0
"05/02/07","22:13:39",40066.000,"cc",28293.690,1,0.100,31802.000,0.200,7293.000,0.300,896.000,0.500,58.000,1.000,17.000,5.000,0
"05/02/07","22:13:45",39490.000,"cc",28389.285,1,0.100,31194.000,0.200,7352.000,0.300,852.000,0.500,77.000,1.000,15.000,5.000,0
"05/02/07","22:13:51",39802.000,"cc",28294.766,1,0.100,31429.000,0.200,7353.000,0.300,938.000,0.500,58.000,1.000,24.000,5.000,0
"05/02/07","22:13:57",39591.000,"cc",28269.410,1,0.100,31288.000,0.200,7339.000,0.300,870.000,0.500,76.000,1.000,18.000,5.000,0
"05/02/07","22:14:03",39217.000,"cc",28342.469,1,0.100,31085.000,0.200,7104.000,0.300,944.000,0.500,65.000,1.000,19.000,5.000,0
"05/02/07","22:14:09",39484.000,"cc",28354.180,1,0.100,31255.000,0.200,7244.000,0.300,893.000,0.500,69.000,1.000,23.000,5.000,0
"05/02/07","22:14:15",39145.000,"cc",28313.984,1,0.100,30875.000,0.200,7290.000,0.300,885.000,0.500,74.000,1.000,21.000,5.000,0
"05/02/07","22:14:21",38769.000,"cc",28307.633,1,0.100,30602.000,0.200,7185.000,0.300,888.000,0.500,74.000,1.000,20.000,5.000,0
"05/02/07","22:14:27",39495.000,"cc",28276.387,1,0.100,31234.000,0.200,7264.000,0.300,916.000,0.500,62.000,1.000,19.000,5.000,0
"05/02/07","22:14:33",38954.000,"cc",28298.637,1,0.100,30777.000,0.200,7293.000,0.300,815.000,0.500,56.000,1.000,13.000,5.000,0
"05/02/07","22:14:39",38549.000,"cc",28348.934,1,0.100,30551.000,0.200,7029.000,0.300,874.000,0.500,83.000,1.000,12.000,5.000,0
"05/02/07","22:14:45",38592.000,"cc",28294.541,1,0.100,30575.000,0.200,7156.000,0.300,787.000,0.500,65.000,1.000,9.000,5.000,0
"05/02/07","22:14:51",38680.000,"cc",28346.541,1,0.100,30579.000,0.200,7119.000,0.300,900.000,0.500,62.000,1.000,20.000,5.000,0
"05/02/07","22:14:57",38726.000,"cc",28326.377,1,0.100,30565.000,0.200,7190.000,0.300,893.000,0.500,68.000,1.000,10.000,5.000,0
"05/02/07","22:15:03",38627.000,"cc",28319.336,1,0.100,30519.000,0.200,7128.000,0.300,897.000,0.500,70.000,1.000,13.000,5.000,0
"05/02/07","22:15:09",38131.000,"cc",28294.736,1,0.100,30052.000,0.200,7153.000,0.300,833.000,0.500,79.000,1.000,14.000,5.000,0
"05/02/07","22:15:15",38776.000,"cc",28285.574,1,0.100,30607.000,0.200,7208.000,0.300,875.000,0.500,63.000,1.000,23.000,5.000,0
"05/02/07","22:15:21",37938.000,"cc",28297.813,1,0.100,29997.000,0.200,7048.000,0.300,812.000,0.500,64.000,1.000,17.000,5.000,0
"05/02/07","22:15:27",38594.000,"cc",28362.965,1,0.100,30478.000,0.200,7153.000,0.300,871.000,0.500,79.000,1.000,13.000,5.000,0
"05/02/07","22:15:33",38321.000,"cc",28391.795,1,0.100,30369.000,0.200,7026.000,0.300,834.000,0.500,76.000,1.000,16.000,5.000,0
"05/02/07","22:15:39",38156.000,"cc",28302.127,1,0.100,30205.000,0.200,7054.000,0.300,808.000,0.500,72.000,1.000,17.000,5.000,0
"05/02/07","22:15:45",37772.000,"cc",28310.963,1,0.100,29872.000,0.200,6979.000,0.300,831.000,0.500,69.000,1.000,21.000,5.000,0
"05/02/07","22:15:51",38066.000,"cc",28304.010,1,0.100,30180.000,0.200,6955.000,0.300,848.000,0.500,74.000,1.000,9.000,5.000,0
"05/02/07","22:15:57",38000.000,"cc",28283.047,1,0.100,30051.000,0.200,7096.000,0.300,784.000,0.500,52.000,1.000,17.000,5.000,0
"05/02/07","22:16:03",37758.000,"cc",28311.332,1,0.100,29930.000,0.200,6947.000,0.300,798.000,0.500,65.000,1.000,18.000,5.000,0
"05/02/07","22:16:09",37557.000,"cc",28358.934,1,0.100,29636.000,0.200,7030.000,0.300,826.000,0.500,54.000,1.000,11.000,5.000,0
"05/02/07","22:16:15",37564.000,"cc",28273.922,1,0.100,29718.000,0.200,6948.000,0.300,826.000,0.500,62.000,1.000,10.000,5.000,0
"05/02/07","22:16:21",37763.000,"cc",28314.590,1,0.100,29961.000,0.200,6873.000,0.300,828.000,0.500,87.000,1.000,14.000,5.000,0
"05/02/07","22:16:27",37648.000,"cc",28293.389,1,0.100,29797.000,0.200,7009.000,0.300,763.000,0.500,68.000,1.000,11.000,5.000,0
"05/02/07","22:16:33",37444.000,"cc",28260.404,1,0.100,29623.000,0.200,6932.000,0.300,818.000,0.500,52.000,1.000,19.000,5.000,0
"05/02/07","22:16:39",37595.000,"cc",28361.529,1,0.100,29761.000,0.200,6966.000,0.300,795.000,0.500,59.000,1.000,14.000,5.000,0
"05/02/07","22:16:45",37511.000,"cc",28299.164,1,0.100,29768.000,0.200,6862.000,0.300,812.000,0.500,60.000,1.000,9.000,5.000,0
"05/02/07","22:16:51",37416.000,"cc",28370.229,1,0.100,29528.000,0.200,6998.000,0.300,821.000,0.500,59.000,1.000,10.000,5.000,0
"05/02/07","22:16:57",37284.000,"cc",28320.992,1,0.100,29537.000,0.200,6830.000,0.300,855.000,0.500,53.000,1.000,9.000,5.000,0
"05/02/07","22:17:03",37294.000,"cc",28332.135,1,0.100,29454.000,0.200,6936.000,0.300,831.000,0.500,64.000,1.000,9.000,5.000,0
"05/02/07","22:17:09",37136.000,"cc",28341.078,1,0.100,29352.000,0.200,6908.000,0.300,807.000,0.500,59.000,1.000,10.000,5.000,0
"05/02/07","22:17:15",36894.000,"cc",28316.400,1,0.100,29120.000,0.200,6901.000,0.300,816.000,0.500,44.000,1.000,13.000,5.000,0
"05/02/07","22:17:21",37551.000,"cc",28272.924,1,0.100,29725.000,0.200,6971.000,0.300,790.000,0.500,52.000,1.000,13.000,5.000,0
"05/02/07","22:17:27",37312.000,"cc",28294.586,1,0.100,29576.000,0.200,6905.000,0.300,778.000,0.500,47.000,1.000,6.000,5.000,0
"05/02/07","22:17:33",37463.000,"cc",28311.541,1,0.100,29691.000,0.200,6883.000,0.300,832.000,0.500,48.000,1.000,9.000,5.000,0